WetterOnline ( http://www.wetteronline.de )

Wetter aktuell Ahaus

Aktuelles Wetter: Ahaus (46m)

6-stündlich | Neueste Meldungen
Ortszeit Temperatur Wetter
Di, 25.09. 2:00 5.8° C fast wolkenlos
Mo, 24.09. 20:00 10.3° C wolkenlos
Mo, 24.09. 14:00 12.7° C leicht bewölkt
Mo, 24.09. 8:00 7.1° C wolkenlos
Mo, 24.09. 2:00 7.7° C wolkenlos
So, 23.09. 20:00 9.2° C leichter Regen
So, 23.09. 14:00 10.4° C leichter Regen
So, 23.09. 8:00 10.2° C bedeckt
Ortszeit Temperatur Wetter
Di, 25.09. 3:00 5.0° C wolkenlos
Di, 25.09. 2:50 5.0° C wolkenlos
Di, 25.09. 2:40 4.5° C wolkenlos
Di, 25.09. 2:30 4.9° C leicht bewölkt
Di, 25.09. 2:20 4.9° C leicht bewölkt
Di, 25.09. 2:10 4.6° C leicht bewölkt
Di, 25.09. 2:00 5.8° C fast wolkenlos
Di, 25.09. 1:30 5.5° C leicht bewölkt
Di, 25.09. 1:00 6.2° C fast wolkenlos
Di, 25.09. 0:30 6.3° C leicht bewölkt
Di, 25.09. 0:00 6.2° C fast wolkenlos
Ortszeit Relative Feuchte Sichtweite
Di, 25.09. 2:00 98% 19 km
Mo, 24.09. 20:00 74% 50 km
Mo, 24.09. 14:00 71% 30 km
Mo, 24.09. 8:00 86% 30 km
Mo, 24.09. 2:00 86% 40 km
So, 23.09. 20:00 93% 19 km
So, 23.09. 14:00 94% 3.5 km
So, 23.09. 8:00 95% 4.6 km
Ortszeit Relative Feuchte Sichtweite
Di, 25.09. 3:00 97% 1.4 km
Di, 25.09. 2:50 97% -
Di, 25.09. 2:40 98% -
Di, 25.09. 2:30 99% 8 km
Di, 25.09. 2:20 99% -
Di, 25.09. 2:10 98% -
Di, 25.09. 2:00 98% 19 km
Di, 25.09. 1:30 97% 19 km
Di, 25.09. 1:00 95% 22 km
Di, 25.09. 0:30 97% 26 km
Di, 25.09. 0:00 95% 26 km
Ortszeit Niederschlagsmenge Niederschlagsart
Di, 25.09. 2:00 0.1 l/m2 in 6 Std. Regen
Mo, 24.09. 20:00 0.5 l/m2 in 12 Std. Regen
Mo, 24.09. 14:00 0.1 l/m2 in 6 Std. Regen
Mo, 24.09. 8:00 0.1 l/m2 in 12 Std. -
Mo, 24.09. 2:00 0.1 l/m2 in 6 Std. Regen
So, 23.09. 20:00 12 l/m2 in 12 Std. Regen
So, 23.09. 14:00 5 l/m2 in 6 Std. Regen
So, 23.09. 8:00 0.8 l/m2 in 12 Std. Regen
Ortszeit Niederschlagsmenge Niederschlagsart
Di, 25.09. 3:00 0.0 l/m2 in 1 Std. -
Di, 25.09. 2:50 keine Meldung -
Di, 25.09. 2:40 keine Meldung -
Di, 25.09. 2:30 0.0 l/m2 in 1 Std. -
Di, 25.09. 2:20 keine Meldung -
Di, 25.09. 2:10 keine Meldung -
Di, 25.09. 2:00 0.0 l/m2 in 1 Std. Regen
Di, 25.09. 1:30 0.0 l/m2 in 1 Std. -
Di, 25.09. 1:00 0.0 l/m2 in 1 Std. -
Di, 25.09. 0:30 0.0 l/m2 in 1 Std. -
Di, 25.09. 0:00 0.0 l/m2 in 1 Std. -
Ortszeit Stärke Spitze Richtung
km/h Bft. km/h Grad Sektor
Di, 25.09. 2:00 4 1 18 210° SW
Mo, 24.09. 20:00 6 1 46 330° NW
Mo, 24.09. 14:00 20 4 39 280° W
Mo, 24.09. 8:00 9 2 22 250° W
Mo, 24.09. 2:00 11 2 22 280° W
So, 23.09. 20:00 13 3 35 300° NW
So, 23.09. 14:00 14 3 29 10° N
So, 23.09. 8:00 6 1 15 60° NO
Ortszeit Stärke Spitze Richtung
km/h Bft. km/h Grad Sektor
Di, 25.09. 3:00 4 1 18 210° SW
Di, 25.09. 2:50 4 1 - 210° SW
Di, 25.09. 2:40 2 1 - 110° O
Di, 25.09. 2:30 4 1 18 90° O
Di, 25.09. 2:20 4 1 - 90° O
Di, 25.09. 2:10 4 1 - - -
Di, 25.09. 2:00 4 1 7 210° SW
Di, 25.09. 1:30 4 1 7 210° SW
Di, 25.09. 1:00 6 1 9 240° SW
Di, 25.09. 0:30 6 1 9 250° W
Di, 25.09. 0:00 4 1 7 220° SW
Ortszeit Untergrenze Bedeckung Gattung
total tief tief mittel hoch
Di, 25.09. 2:00 1800 m 0/8 0/8 - - -
Mo, 24.09. 20:00 - 0/8 0/8 - - -
Mo, 24.09. 14:00 1230 m 4/8 4/8 - - -
Mo, 24.09. 8:00 - 0/8 0/8 - - -
Mo, 24.09. 2:00 - 0/8 0/8 - - -
So, 23.09. 20:00 300 m 8/8 8/8 - - -
So, 23.09. 14:00 240 m 8/8 8/8 - - -
So, 23.09. 8:00 870 m 8/8 8/8 - - -
Ortszeit Bedeckungsgrad in Achtel und Wolkenuntergrenze
Di, 25.09. 3:00 keine Wolken
Di, 25.09. 2:50 keine Wolken
Di, 25.09. 2:40 keine Wolken
Di, 25.09. 2:30 2(1800m)
Di, 25.09. 2:20 2(1800m)
Di, 25.09. 2:10 3(1800m)
Di, 25.09. 2:00 2(1800m)
Di, 25.09. 1:30 3(9000m)
Di, 25.09. 1:00 1(8700m)
Di, 25.09. 0:30 5(9000m)
Di, 25.09. 0:00 1(9000m) 5(9000m)
Ortszeit Luftdruck NN (hPa) Tendenz (hPa in 3 Std.)
Di, 25.09. 2:00 1037 + 1,0
Mo, 24.09. 20:00 1035 + 1,1
Mo, 24.09. 14:00 1033 + 1,0
Mo, 24.09. 8:00 1029 + 2,1
Mo, 24.09. 2:00 1025 + 3,6
So, 23.09. 20:00 1016 + 4,1
So, 23.09. 14:00 1011 - 1,1
So, 23.09. 8:00 1013 - 1,7
Ortszeit Luftdruck NN (hPa) Tendenz (hPa in 3 Std.)
Di, 25.09. 3:00 1038 + 0,7
Di, 25.09. 2:50 1038 keine Meldung
Di, 25.09. 2:40 1037 keine Meldung
Di, 25.09. 2:30 1037 + 0,8
Di, 25.09. 2:20 1037 keine Meldung
Di, 25.09. 2:10 1037 keine Meldung
Di, 25.09. 2:00 1037 + 1,0
Di, 25.09. 1:30 1037 + 1,3
Di, 25.09. 1:00 1037 + 1,2
Di, 25.09. 0:30 1037 + 1,3
Di, 25.09. 0:00 1037 + 1,4
Ortszeit Schneehöhe (cm)
Di, 25.09. 2:00 -
Mo, 24.09. 20:00 -
Mo, 24.09. 14:00 -
Mo, 24.09. 8:00 -
Mo, 24.09. 2:00 -
So, 23.09. 20:00 -
So, 23.09. 14:00 -
So, 23.09. 8:00 -
Ortszeit Schneehöhe (cm)
Di, 25.09. 3:00 -
Di, 25.09. 2:50 -
Di, 25.09. 2:40 -
Di, 25.09. 2:30 -
Di, 25.09. 2:20 -
Di, 25.09. 2:10 -
Di, 25.09. 2:00 -
Di, 25.09. 1:30 -
Di, 25.09. 1:00 -
Di, 25.09. 0:30 -
Di, 25.09. 0:00 -
Link zu dieser Seite / Seite empfehlen

Das Wetter in ...